Abilene, TX

1:54 PM CDT on September 25, 2016 (GMT -0500)
Dyess Air Force Base

Weather History for KDYS - March, 2013

Change the Weather History Date:

Sunday, March 17, 2013

  Actual Average Record
Temperature  
Mean Temperature 56 °F -  
Max Temperature 70 °F 65 °F 91 °F (2011)
Min Temperature 43 °F 43 °F 26 °F (2005)
Degree Days  
Heating Degree Days 8    
Growing Degree Days 6 (Base 50)    
Moisture  
Dew Point 39 °F    
Average Humidity 53    
Maximum Humidity 71    
Minimum Humidity 33    
Precipitation  
Precipitation 0.00 in - - ()
Sea Level Pressure  
Sea Level Pressure 29.71 in    
Wind  
Wind Speed 8 mph (North)    
Max Wind Speed 13 mph    
Max Gust Speed -    
Visibility 10 miles    
Events      
Averages and records for this station are not official NWS values.
T = Trace of Precipitation, MM = Missing Value Source: NWS Daily Summary

Daily Weather History Graph

Daily Weather History Graph

Search for Another Location

Airport or City:

Trip Planner

Search our weather history database for the weather conditions in past years. The results will help you decide how hot, cold, wet, or windy it might be!

Date:

Astronomy

Mar. 17, 2013 Rise Set
Actual Time 7:46 AM CDT 7:49 PM CDT
Civil Twilight 7:22 AM CDT 8:13 PM CDT
Nautical Twilight 6:53 AM CDT 8:42 PM CDT
Astronomical Twilight 6:24 AM CDT 9:10 PM CDT
Moon 11:19 AM CDT (3/17) 12:40 AM CDT (3/17)
Length of Visible Light 12h 51m
Length of Day
12h 02m
Waxing Crescent, 31% of the Moon is Illuminated
Mar 17
Waxing Crescent
Mar 19
First Quarter
Mar 27
Full
Apr 2
Last Quarter
Apr 10
New

Hourly Weather History & Observations

Time (CDT) Temp. Windchill Dew Point Humidity Pressure Visibility Wind Dir Wind Speed Gust Speed Precip Events Conditions
12:58 AM 57.6 °F - 46.2 °F 66% 29.67 in 10.0 mi NNW 8.1 mph - N/A   Clear
1:58 AM 55.8 °F - 44.8 °F 67% 29.68 in 10.0 mi NNW 9.2 mph - N/A   Clear
2:58 AM 53.8 °F - 42.4 °F 65% 29.69 in 10.0 mi North 10.4 mph - N/A   Clear
3:58 AM 50.7 °F - 39.7 °F 66% 29.69 in 10.0 mi North 5.8 mph - N/A   Clear
4:58 AM 48.2 °F - 37.4 °F 66% 29.69 in 10.0 mi North 12.7 mph - N/A   Clear
5:58 AM 45.9 °F 40.0 °F 36.1 °F 69% 29.71 in 10.0 mi North 12.7 mph - N/A   Clear
6:58 AM 44.8 °F 39.0 °F 34.9 °F 68% 29.74 in 10.0 mi North 11.5 mph - N/A   Clear
7:58 AM 43.5 °F 40.1 °F 34.5 °F 71% 29.79 in 10.0 mi NNW 5.8 mph - N/A   Clear
8:58 AM 44.6 °F 39.7 °F 34.7 °F 68% 29.81 in 10.0 mi NNW 9.2 mph - N/A   Clear
9:58 AM 46.9 °F - 34.5 °F 62% 29.81 in 10.0 mi North 6.9 mph - N/A   Clear
10:58 AM 50.5 °F - 35.2 °F 56% 29.82 in 10.0 mi NNW 11.5 mph - N/A   Clear
11:58 AM 52.7 °F - 35.4 °F 52% 29.80 in 10.0 mi North 9.2 mph - N/A   Clear
12:58 PM 55.2 °F - 36.3 °F 49% 29.79 in 10.0 mi NNW 4.6 mph - N/A   Clear
1:58 PM 59.2 °F - 37.4 °F 44% 29.76 in 10.0 mi Variable 5.8 mph - N/A   Clear
2:58 PM 63.0 °F - 39.4 °F 42% 29.71 in 10.0 mi Variable 4.6 mph - N/A   Clear
3:58 PM 66.2 °F - 39.6 °F 38% 29.67 in 10.0 mi Variable 1.2 mph - N/A   Clear
4:56 PM 68.0 °F - 39.2 °F 35% 29.71 in 10.0 mi Variable 5.8 mph - N/A   Clear
5:58 PM 70.3 °F - 39.7 °F 33% 29.63 in 10.0 mi North 4.6 mph - N/A   Clear
6:58 PM 70.5 °F - 40.1 °F 33% 29.63 in 10.0 mi ESE 5.8 mph - N/A   Clear
7:58 PM 65.3 °F - 39.9 °F 39% 29.65 in 10.0 mi East 5.8 mph - N/A   Clear
8:58 PM 63.3 °F - 40.1 °F 43% 29.63 in 10.0 mi East 8.1 mph - N/A   Clear
9:58 PM 61.3 °F - 40.6 °F 47% 29.64 in 10.0 mi SE 10.4 mph - N/A   Clear
10:58 PM 59.4 °F - 40.1 °F 49% 29.72 in 10.0 mi WNW 9.2 mph - N/A   Partly Cloudy
11:58 PM 60.6 °F - 40.8 °F 48% 29.65 in 10.0 mi SSE 10.4 mph - N/A   Scattered Clouds